Oscoda, MI

9:18 PM EDT on July 23, 2017 (GMT -0400)
Oscoda-Wurtsmith

Weather History for KOSC - March, 2014

Change the Weather History Date:

Saturday, March 22, 2014

  Actual Average Record
Temperature  
Mean Temperature 26 °F -  
Max Temperature 37 °F 40 °F 66 °F (2012)
Min Temperature 14 °F 23 °F 8 °F (2004)
Degree Days  
Heating Degree Days 39    
Moisture  
Dew Point 20 °F    
Average Humidity 71    
Maximum Humidity 95    
Minimum Humidity 42    
Precipitation  
Precipitation 0.10 in - - ()
Sea Level Pressure  
Sea Level Pressure 29.96 in    
Wind  
Wind Speed 9 mph (NW)    
Max Wind Speed 23 mph    
Max Gust Speed 30 mph    
Visibility 9 miles    
Events Snow    
Averages and records for this station are not official NWS values.
T = Trace of Precipitation, MM = Missing Value Source: NWS Daily Summary

Daily Weather History Graph

Daily Weather History Graph

Search for Another Location

Airport or City:

Trip Planner

Search our weather history database for the weather conditions in past years. The results will help you decide how hot, cold, wet, or windy it might be!

Date:

Astronomy

Mar. 22, 2014 Rise Set
Actual Time 7:32 AM EDT 7:48 PM EDT
Civil Twilight 7:03 AM EDT 8:17 PM EDT
Nautical Twilight 6:29 AM EDT 8:51 PM EDT
Astronomical Twilight 5:54 AM EDT 9:26 PM EDT
Moon 1:17 AM EDT (3/22) 11:04 AM EDT (3/22)
Length of Visible Light 13h 13m
Length of Day
12h 15m
Waning Gibbous, 65% of the Moon is Illuminated
Mar 22
Waning Gibbous
Mar 23
Last Quarter
Mar 30
New
Apr 7
First Quarter
Apr 15
Full

Hourly Weather History & Observations

Time (EDT) Temp. Windchill Dew Point Humidity Pressure Visibility Wind Dir Wind Speed Gust Speed Precip Events Conditions
12:14 AM 31.6 °F 25.1 °F 30.2 °F 94% 29.74 in 0.5 mi ESE 6.9 mph - N/A Snow Snow
12:34 AM 31.3 °F 27.9 °F 29.8 °F 94% 29.75 in 1.0 mi ESE 3.5 mph - 0.01 in Snow Snow
12:54 AM 31.3 °F 26.6 °F 29.8 °F 94% 29.74 in 0.8 mi East 4.6 mph - 0.01 in Snow Snow
1:13 AM 31.1 °F - 29.8 °F 95% 29.73 in 1.2 mi Calm Calm - 0.02 in Snow Light Snow
1:34 AM 31.1 °F - 29.8 °F 95% 29.73 in 1.8 mi Calm Calm - 0.04 in Snow Light Snow
1:54 AM 31.1 °F 26.4 °F 29.8 °F 95% 29.72 in 4.0 mi North 4.6 mph - 0.06 in Snow Light Snow
2:13 AM 31.1 °F 25.4 °F 29.8 °F 95% 29.71 in 4.0 mi North 5.8 mph - N/A Snow Light Snow
2:34 AM 31.1 °F 24.5 °F 29.8 °F 95% 29.71 in 5.0 mi North 6.9 mph - 0.02 in   Overcast
2:54 AM 30.9 °F 24.3 °F 29.3 °F 94% 29.71 in 7.0 mi North 6.9 mph - 0.03 in   Overcast
3:13 AM 30.9 °F 25.2 °F 29.3 °F 94% 29.71 in 7.0 mi North 5.8 mph - N/A   Overcast
3:34 AM 30.9 °F 24.3 °F 29.3 °F 94% 29.71 in 7.0 mi North 6.9 mph - N/A   Overcast
3:54 AM 30.7 °F 24.1 °F 28.8 °F 92% 29.71 in 10.0 mi North 6.9 mph - N/A   Overcast
4:13 AM 30.6 °F 23.1 °F 28.4 °F 92% 29.73 in 10.0 mi NNW 8.1 mph - N/A   Overcast
4:34 AM 30.6 °F 23.8 °F 28.2 °F 91% 29.74 in 10.0 mi NNW 6.9 mph - N/A   Overcast
4:54 AM 30.6 °F 21.8 °F 28.2 °F 91% 29.75 in 10.0 mi NNW 10.4 mph - N/A   Overcast
5:13 AM 30.6 °F 23.8 °F 28.2 °F 91% 29.76 in 10.0 mi NNW 6.9 mph - N/A   Overcast
5:34 AM 30.2 °F 21.3 °F 27.5 °F 90% 29.77 in 10.0 mi NW 10.4 mph - N/A   Overcast
5:54 AM 30.2 °F 20.8 °F 27.5 °F 90% 29.79 in 10.0 mi NW 11.5 mph - N/A   Overcast
6:13 AM 30.0 °F 22.4 °F 27.3 °F 90% 29.80 in 10.0 mi NW 8.1 mph - N/A   Overcast
6:34 AM 30.0 °F 20.5 °F 26.6 °F 87% 29.82 in 10.0 mi NW 11.5 mph - N/A   Overcast
6:54 AM 29.5 °F 22.5 °F 26.6 °F 89% 29.82 in 10.0 mi NNW 6.9 mph - N/A   Overcast
7:14 AM 27.5 °F 21.1 °F 25.0 °F 90% 29.84 in 10.0 mi West 5.8 mph - N/A   Overcast
7:34 AM 29.3 °F 21.5 °F 26.6 °F 90% 29.85 in 10.0 mi WNW 8.1 mph - N/A   Overcast
7:53 AM 30.0 °F 23.2 °F 27.0 °F 88% 29.87 in 10.0 mi NW 6.9 mph - N/A   Overcast
8:14 AM 30.2 °F 24.3 °F 26.6 °F 86% 29.88 in 10.0 mi NW 5.8 mph - N/A   Overcast
8:34 AM 30.7 °F 23.3 °F 27.1 °F 86% 29.90 in 10.0 mi NW 8.1 mph - N/A   Overcast
8:53 AM 30.7 °F 21.4 °F 26.8 °F 85% 29.90 in 10.0 mi NW 11.5 mph 16.1 mph N/A   Overcast
9:14 AM 31.1 °F 22.4 °F 26.4 °F 83% 29.91 in 10.0 mi NNW 10.4 mph 16.1 mph N/A   Overcast
9:34 AM 31.6 °F 26.0 °F 26.4 °F 81% 29.92 in 10.0 mi NNW 5.8 mph 9.2 mph N/A   Overcast
9:53 AM 32.0 °F 24.2 °F 26.6 °F 80% 29.93 in 10.0 mi NW 9.2 mph - N/A   Overcast
10:14 AM 32.0 °F 24.2 °F 27.0 °F 82% 29.93 in 10.0 mi NNW 9.2 mph - N/A   Overcast
10:34 AM 33.3 °F 30.2 °F 27.0 °F 78% 29.94 in 10.0 mi NW 3.5 mph - N/A   Overcast
10:53 AM 33.8 °F 25.3 °F 27.1 °F 77% 29.95 in 10.0 mi NW 11.5 mph - N/A   Overcast
11:14 AM 34.2 °F 25.7 °F 28.0 °F 78% 29.96 in 10.0 mi WNW 11.5 mph 18.4 mph N/A   Overcast
11:34 AM 35.1 °F 27.4 °F 28.2 °F 76% 29.96 in 10.0 mi WNW 10.4 mph - N/A   Overcast
11:53 AM 36.9 °F 30.1 °F 27.5 °F 69% 29.96 in 10.0 mi WNW 9.2 mph - N/A   Mostly Cloudy
12:14 PM 37.0 °F 29.3 °F 27.3 °F 68% 29.97 in 10.0 mi WNW 11.5 mph 17.3 mph N/A   Mostly Cloudy
12:34 PM 36.1 °F 25.9 °F 28.4 °F 73% 29.98 in 10.0 mi WNW 18.4 mph 21.9 mph N/A   Overcast
12:53 PM 35.6 °F 25.5 °F 27.9 °F 73% 29.98 in 10.0 mi WNW 17.3 mph - N/A   Overcast
1:14 PM 33.8 °F 23.9 °F 28.0 °F 79% 30.00 in 10.0 mi WNW 15.0 mph 24.2 mph N/A Snow Light Snow
1:34 PM 33.8 °F 23.5 °F 27.0 °F 76% 30.01 in 10.0 mi WNW 16.1 mph 23.0 mph N/A   Overcast
1:53 PM 32.9 °F 22.0 °F 23.7 °F 69% 30.02 in 10.0 mi West 17.3 mph 23.0 mph N/A   Overcast
2:14 PM 32.7 °F 21.8 °F 21.7 °F 64% 30.02 in 10.0 mi NW 17.3 mph 25.3 mph N/A   Overcast
2:34 PM 33.1 °F 21.9 °F 21.2 °F 62% 30.02 in 10.0 mi WNW 18.4 mph 21.9 mph N/A   Overcast
2:53 PM 33.8 °F 22.8 °F 19.9 °F 57% 30.02 in 10.0 mi WNW 18.4 mph 25.3 mph N/A   Mostly Cloudy
3:14 PM 34.0 °F 21.8 °F 18.3 °F 53% 30.03 in 10.0 mi WNW 23.0 mph 27.6 mph N/A   Scattered Clouds
3:34 PM 33.8 °F 22.5 °F 17.2 °F 51% 30.03 in 10.0 mi WNW 19.6 mph 29.9 mph N/A   Clear
3:53 PM 32.9 °F 20.4 °F 16.5 °F 51% 30.03 in 10.0 mi WNW 23.0 mph 27.6 mph N/A   Clear
4:14 PM 32.7 °F 21.8 °F 15.4 °F 49% 30.04 in 10.0 mi NW 17.3 mph 23.0 mph N/A   Clear
4:34 PM 32.0 °F 19.2 °F 12.0 °F 44% 30.05 in 10.0 mi NW 23.0 mph 28.8 mph N/A   Clear
4:54 PM 31.3 °F 20.7 °F 10.9 °F 43% 30.06 in 10.0 mi WNW 15.0 mph 19.6 mph N/A   Clear
5:14 PM 30.9 °F 21.2 °F 10.0 °F 42% 30.07 in 10.0 mi NW 12.7 mph 19.6 mph N/A   Clear
5:34 PM 30.0 °F 18.7 °F 9.9 °F 43% 30.08 in 10.0 mi WNW 16.1 mph 21.9 mph N/A   Clear
5:54 PM 29.5 °F 18.0 °F 9.5 °F 43% 30.09 in 10.0 mi WNW 16.1 mph 21.9 mph N/A   Clear
6:14 PM 28.6 °F 17.2 °F 8.4 °F 43% 30.10 in 10.0 mi WNW 15.0 mph 25.3 mph N/A   Clear
6:34 PM 28.0 °F 16.5 °F 8.2 °F 43% 30.11 in 10.0 mi WNW 15.0 mph 24.2 mph N/A   Clear
6:54 PM 27.1 °F 16.4 °F 7.5 °F 44% 30.12 in 10.0 mi WNW 12.7 mph 19.6 mph N/A   Clear
7:14 PM 25.9 °F 14.8 °F 7.7 °F 46% 30.13 in 10.0 mi WNW 12.7 mph 19.6 mph N/A   Clear
7:33 PM 24.8 °F 13.4 °F 7.3 °F 48% 30.13 in 10.0 mi WNW 12.7 mph - N/A   Clear
7:54 PM 23.9 °F 10.8 °F 7.2 °F 49% 30.14 in 10.0 mi WNW 16.1 mph 20.7 mph N/A   Clear
8:14 PM 22.8 °F 12.9 °F 7.3 °F 52% 30.15 in 10.0 mi WNW 9.2 mph 12.7 mph N/A   Clear
8:33 PM 21.7 °F 9.6 °F 5.2 °F 49% 30.17 in 10.0 mi NW 12.7 mph 20.7 mph N/A   Clear
8:54 PM 21.0 °F 10.6 °F 4.8 °F 50% 30.19 in 10.0 mi NW 9.2 mph - N/A   Clear
9:14 PM 20.1 °F 7.5 °F 5.2 °F 52% 30.20 in 10.0 mi WNW 12.7 mph - N/A   Clear
9:33 PM 19.9 °F 6.7 °F 5.2 °F 53% 30.20 in 10.0 mi NW 13.8 mph 17.3 mph N/A   Clear
9:54 PM 19.2 °F 5.3 °F 5.2 °F 54% 30.21 in 10.0 mi NW 15.0 mph 18.4 mph N/A   Clear
10:14 PM 18.5 °F 6.8 °F 5.0 °F 56% 30.22 in 10.0 mi WNW 10.4 mph - N/A   Clear
10:33 PM 18.1 °F 6.3 °F 5.0 °F 57% 30.23 in 10.0 mi NW 10.4 mph 17.3 mph N/A   Clear
10:54 PM 17.4 °F 4.7 °F 5.0 °F 58% 30.24 in 10.0 mi NW 11.5 mph 18.4 mph N/A   Clear
11:14 PM 16.7 °F 3.8 °F 3.9 °F 57% 30.24 in 10.0 mi NW 11.5 mph - N/A   Clear
11:33 PM 15.8 °F 3.4 °F 3.4 °F 58% 30.25 in 10.0 mi NNW 10.4 mph - N/A   Clear
11:54 PM 14.7 °F 1.4 °F 3.0 °F 60% 30.26 in 10.0 mi NW 11.5 mph - N/A   Clear